Istanbul, Turkey

9:23 AM +03 on February 24, 2017 (GMT +0300)
Ataturk

Weather History for LTBA - June, 2012

Change the Weather History Date:

Friday, June 1, 2012

  Actual Average Record
Temperature  
Mean Temperature 66 °F -  
Max Temperature 73 °F 77 °F 86 °F (2001)
Min Temperature 59 °F 63 °F 48 °F (1997)
Cooling Degree Days 1    
Growing Degree Days 16 (Base 50)    
Moisture  
Dew Point 57 °F    
Average Humidity 69    
Maximum Humidity 88    
Minimum Humidity 53    
Precipitation  
Precipitation 0.00 in - - ()
Sea Level Pressure  
Sea Level Pressure 30.01 in    
Wind  
Wind Speed 4 mph ()    
Max Wind Speed 9 mph    
Max Gust Speed -    
Visibility 6.4 miles    
Events      
Averages and records for this station are not official NWS values.
T = Trace of Precipitation, MM = Missing Value Source: Averaged Metar Reports

Daily Weather History Graph

Daily Weather History Graph

Search for Another Location

Airport or City:

Trip Planner

Search our weather history database for the weather conditions in past years. The results will help you decide how hot, cold, wet, or windy it might be!

Date:

Astronomy

Jun. 01, 2012 Rise Set
Actual Time 5:34 AM EEST 8:30 PM EEST
Civil Twilight 5:02 AM EEST 9:03 PM EEST
Nautical Twilight 4:20 AM EEST 9:45 PM EEST
Astronomical Twilight 3:32 AM EEST 10:33 PM EEST
Moon 5:07 PM EEST (6/1) 2:59 AM EEST (6/1)
Length of Visible Light 16h 01m
Length of Day
14h 55m
Waxing Gibbous, 86% of the Moon is Illuminated
Jun 1
Waxing Gibbous
Jun 4
Full
Jun 11
Last Quarter
Jun 19
New
Jun 27
First Quarter

Hourly Weather History & Observations

Time (EEST) Temp. Dew Point Humidity Pressure Visibility Wind Dir Wind Speed Gust Speed Precip Events Conditions
12:20 AM 64.4 °F 50.0 °F 59% 30.01 in 6.2 mi NNW 4.6 mph - N/A   Scattered Clouds
12:50 AM 66.2 °F 50.0 °F 56% 30.01 in 6.2 mi Variable 1.2 mph - N/A   Scattered Clouds
1:20 AM 66.2 °F 57.2 °F 73% 30.01 in 6.2 mi Variable 2.3 mph - N/A   Scattered Clouds
1:50 AM 66.2 °F 57.2 °F 73% 30.01 in 6.2 mi SE 4.6 mph - N/A   Scattered Clouds
2:20 AM 62.6 °F 57.2 °F 82% 30.01 in - Calm Calm - N/A   Clear
2:50 AM 60.8 °F 51.8 °F 72% 30.01 in - NNW 3.5 mph - N/A   Clear
3:00 AM 60 °F 52 °F 67% 30.02 in 6 mi NNW 3.5 mph - -  
3:20 AM 60.8 °F 50.0 °F 68% 30.01 in - North 5.8 mph - N/A   Clear
3:50 AM 60.8 °F 50.0 °F 68% 30.01 in - NNW 5.8 mph - N/A   Clear
4:20 AM 60.8 °F 50.0 °F 68% 30.01 in - NNW 4.6 mph - N/A   Clear
4:50 AM 60.8 °F 51.8 °F 72% 30.01 in - North 2.3 mph - N/A   Clear
5:20 AM 60.8 °F 51.8 °F 72% 30.01 in - Calm Calm - N/A   Clear
5:50 AM 60.8 °F 51.8 °F 72% 30.01 in - Variable 1.2 mph - N/A   Clear
6:20 AM 62.6 °F 53.6 °F 72% 30.01 in - Variable 1.2 mph - N/A   Clear
7:20 AM 66.2 °F 55.4 °F 68% 30.01 in - Variable 3.5 mph - N/A   Clear
7:50 AM 66.2 °F 57.2 °F 73% 30.01 in - SE 4.6 mph - N/A   Clear
8:20 AM 66.2 °F 57.2 °F 73% 30.01 in - South 4.6 mph - N/A   Clear
8:50 AM 68.0 °F 57.2 °F 68% 30.04 in - South 5.8 mph - N/A   Clear
9:00 AM 67 °F 57 °F 63% 30.03 in 6 mi South 5.8 mph - -  
9:20 AM 68.0 °F 57.2 °F 68% 30.04 in - SSW 5.8 mph - N/A   Clear
9:50 AM 68.0 °F 57.2 °F 68% 30.04 in - SSW 8.1 mph - N/A   Clear
10:20 AM 68.0 °F 59.0 °F 73% 30.04 in - SSW 8.1 mph - N/A   Clear
10:50 AM 69.8 °F 57.2 °F 64% 30.04 in 6.2 mi SSW 9.2 mph - N/A   Partly Cloudy
11:20 AM 69.8 °F 59.0 °F 68% 30.04 in 6.2 mi SSW 9.2 mph - N/A   Scattered Clouds
11:50 AM 69.8 °F 59.0 °F 68% 30.04 in - SSW 9.2 mph - N/A   Clear
12:20 PM 69.8 °F 59.0 °F 68% 30.04 in - SSW 9.2 mph - N/A   Clear
12:50 PM 69.8 °F 59.0 °F 68% 30.04 in - SSW 9.2 mph - N/A   Clear
1:20 PM 71.6 °F 60.8 °F 69% 30.04 in 6.2 mi SSW 8.1 mph - N/A   Partly Cloudy
1:50 PM 69.8 °F 59.0 °F 68% 30.04 in 6.2 mi SW 9.2 mph - N/A   Partly Cloudy
2:20 PM 71.6 °F 60.8 °F 69% 30.01 in 6.2 mi SW 8.1 mph - N/A   Partly Cloudy
2:50 PM 71.6 °F 60.8 °F 69% 30.01 in 6.2 mi SW 6.9 mph - N/A   Partly Cloudy
3:00 PM 72 °F 59 °F 55% 30.02 in 6 mi SW 6.9 mph - -   Scattered Clouds
3:20 PM 71.6 °F 59.0 °F 64% 30.01 in 6.2 mi SW 6.9 mph - N/A   Partly Cloudy
3:50 PM 73.4 °F 55.4 °F 53% 29.98 in 6.2 mi South 5.8 mph - N/A   Partly Cloudy
4:20 PM 73.4 °F 57.2 °F 57% 29.98 in 6.2 mi SSW 5.8 mph - N/A   Scattered Clouds
4:50 PM 73.4 °F 57.2 °F 57% 29.98 in 6.2 mi SW 4.6 mph - N/A   Scattered Clouds
5:20 PM 73.4 °F 59.0 °F 61% 29.98 in 6.2 mi South 5.8 mph - N/A   Scattered Clouds
5:50 PM 71.6 °F 59.0 °F 64% 29.98 in 6.2 mi South 4.6 mph - N/A   Scattered Clouds
6:20 PM 71.6 °F 59.0 °F 64% 29.98 in 6.2 mi South 3.5 mph - N/A   Scattered Clouds
6:50 PM 69.8 °F 59.0 °F 68% 29.98 in 6.2 mi SSW 4.6 mph - N/A   Partly Cloudy
7:20 PM 69.8 °F 59.0 °F 68% 29.98 in 6.2 mi South 3.5 mph - N/A   Partly Cloudy
7:50 PM 69.8 °F 59.0 °F 68% 29.95 in 6.2 mi South 4.6 mph - N/A   Partly Cloudy
8:20 PM 69.8 °F 59.0 °F 68% 29.98 in 6.2 mi South 4.6 mph - N/A   Partly Cloudy
8:50 PM 68.0 °F 60.8 °F 78% 29.98 in 6.2 mi Variable 2.3 mph - N/A   Partly Cloudy
9:00 PM 67 °F 61 °F 74% 29.98 in 12 mi SSW 2.3 mph - -   Scattered Clouds
9:20 PM 68.0 °F 60.8 °F 78% 29.98 in 6.2 mi South 3.5 mph - N/A   Partly Cloudy
9:50 PM 68.0 °F 59.0 °F 73% 29.98 in 6.2 mi SSW 2.3 mph - N/A   Partly Cloudy
10:20 PM 68.0 °F 62.6 °F 83% 30.01 in 6.2 mi Variable 2.3 mph - N/A   Partly Cloudy
10:50 PM 68.0 °F 64.4 °F 88% 30.01 in 6.2 mi SSE 3.5 mph - N/A   Partly Cloudy
11:20 PM 66.2 °F 62.6 °F 88% 29.98 in 6.2 mi South 2.3 mph - N/A   Partly Cloudy
11:50 PM 66.2 °F 60.8 °F 83% 29.98 in 6.2 mi Variable 1.2 mph - N/A   Partly Cloudy